| time (UTC) | temp C | wind direction | speed KPH | gust KPH | rain 1hr cm | rain 24hr cm | rain mn cm | humidity % | barometer mb |
| 20260508045010 | 12 | 0 | 0.0 | 0.0 | 0.03 | 0.94 | 0.03 | 94 | 1014.1 |
| 20260508044530 | 12 | 0 | 0.0 | 0.0 | 0.03 | 0.94 | 0.03 | 94 | 1014.0 |
| 20260508044010 | 12 | 0 | 0.0 | 0.0 | 0.03 | 0.94 | 0.03 | 94 | 1013.9 |
| 20260508043512 | 12 | 0 | 0.0 | 0.0 | 0.03 | 0.94 | 0.03 | 94 | 1014.0 |
| 20260508043032 | 12 | 0 | 0.0 | 0.0 | 0.03 | 0.94 | 0.03 | 94 | 1013.9 |
| 20260508042511 | 12 | 0 | 0.0 | 0.0 | 0.03 | 0.94 | 0.03 | 94 | 1014.0 |
| 20260508042012 | 12 | 0 | 0.0 | 0.0 | 0.03 | 0.94 | 0.03 | 94 | 1013.8 |
| 20260508041530 | 12 | 0 | 0.0 | 0.0 | 0.03 | 0.94 | 0.03 | 94 | 1013.9 |
| 20260508041011 | 12 | 0 | 0.0 | 0.0 | 0.03 | 0.94 | 0.03 | 94 | 1014.0 |
| 20260508040512 | 12 | 0 | 0.0 | 0.0 | 0.03 | 0.94 | 0.03 | 94 | 1014.0 |
| 20260508040037 | 12 | 0 | 0.0 | 0.0 | 0.00 | 0.91 | 0.00 | 94 | 1014.0 |
| 20260508035509 | 12 | 0 | 0.0 | 0.0 | 0.00 | 0.97 | 0.91 | 94 | 1013.9 |
| 20260508035014 | 12 | 0 | 0.0 | 0.0 | 0.00 | 0.97 | 0.91 | 94 | 1013.9 |
| 20260508034531 | 12 | 0 | 0.0 | 0.0 | 0.00 | 0.97 | 0.91 | 94 | 1013.7 |
| 20260508034012 | 12 | 0 | 0.0 | 0.0 | 0.00 | 0.97 | 0.91 | 94 | 1013.6 |
| 20260508033512 | 12 | 0 | 0.0 | 0.0 | 0.00 | 0.97 | 0.91 | 94 | 1013.5 |
| 20260508033033 | 12 | 0 | 0.0 | 0.0 | 0.03 | 0.97 | 0.91 | 94 | 1013.3 |
| 20260508032512 | 12 | 0 | 0.0 | 0.0 | 0.03 | 0.97 | 0.91 | 94 | 1013.3 |
| 20260508032014 | 12 | 0 | 0.0 | 0.0 | 0.03 | 0.97 | 0.91 | 94 | 1013.2 |
| 20260508031533 | 12 | 0 | 0.0 | 0.0 | 0.03 | 0.97 | 0.91 | 94 | 1013.0 |
| 20260508031010 | 12 | 0 | 0.0 | 0.0 | 0.03 | 0.97 | 0.91 | 94 | 1013.1 |
| 20260508030514 | 12 | 0 | 0.0 | 0.0 | 0.03 | 0.97 | 0.91 | 94 | 1013.3 |
| 20260508030033 | 12 | 0 | 0.0 | 0.0 | 0.03 | 0.97 | 0.91 | 94 | 1013.3 |
| 20260508025511 | 12 | 0 | 0.0 | 0.0 | 0.03 | 0.97 | 0.91 | 94 | 1012.9 |
| 20260508025010 | 12 | 0 | 0.0 | 0.0 | 0.03 | 0.97 | 0.91 | 94 | 1013.0 |
| 20260508024542 | 12 | 0 | 0.0 | 1.6 | 0.03 | 0.97 | 0.91 | 94 | 1012.9 |
| 20260508024014 | 12 | 0 | 0.0 | 1.6 | 0.03 | 0.97 | 0.91 | 94 | 1013.0 |
| 20260508023511 | 12 | 0 | 0.0 | 1.6 | 0.03 | 0.97 | 0.91 | 94 | 1012.9 |
| 20260508023030 | 12 | 0 | 0.0 | 0.0 | 0.00 | 0.94 | 0.89 | 94 | 1012.8 |
| 20260508022510 | 12 | 0 | 0.0 | 0.0 | 0.00 | 0.94 | 0.89 | 94 | 1012.8 |
| 20260508022014 | 12 | 0 | 0.0 | 0.0 | 0.00 | 0.94 | 0.89 | 94 | 1012.8 |
| 20260508021535 | 12 | 0 | 0.0 | 0.0 | 0.00 | 0.94 | 0.89 | 94 | 1012.7 |
| 20260508021015 | 12 | 0 | 0.0 | 0.0 | 0.00 | 0.94 | 0.89 | 94 | 1012.7 |
| 20260508020513 | 12 | 0 | 0.0 | 0.0 | 0.00 | 0.94 | 0.89 | 93 | 1012.7 |
| 20260508020030 | 12 | 0 | 0.0 | 0.0 | 0.03 | 0.94 | 0.89 | 94 | 1012.6 |
| 20260508015508 | 12 | 0 | 0.0 | 0.0 | 0.03 | 0.94 | 0.89 | 93 | 1012.6 |
| 20260508015014 | 12 | 0 | 0.0 | 0.0 | 0.03 | 0.94 | 0.89 | 93 | 1012.7 |
| 20260508014545 | 12 | 0 | 0.0 | 0.0 | 0.03 | 0.94 | 0.89 | 93 | 1012.7 |
| 20260508014008 | 12 | 0 | 0.0 | 0.0 | 0.03 | 0.94 | 0.89 | 93 | 1012.6 |
| 20260508013512 | 12 | 0 | 0.0 | 0.0 | 0.03 | 0.94 | 0.89 | 93 | 1012.4 |
| 20260508013033 | 12 | 0 | 0.0 | 0.0 | 0.03 | 0.94 | 0.89 | 93 | 1012.3 |
| 20260508012510 | 12 | 0 | 0.0 | 0.0 | 0.03 | 0.94 | 0.89 | 93 | 1011.9 |
| 20260508012010 | 12 | 0 | 0.0 | 0.0 | 0.03 | 0.94 | 0.89 | 93 | 1011.7 |
| 20260508011535 | 12 | 0 | 0.0 | 0.0 | 0.03 | 0.94 | 0.89 | 93 | 1011.6 |
| 20260508011009 | 12 | 0 | 0.0 | 0.0 | 0.03 | 0.94 | 0.89 | 93 | 1011.7 |
| 20260508010511 | 12 | 0 | 0.0 | 0.0 | 0.03 | 0.94 | 0.89 | 93 | 1011.8 |
| 20260508010033 | 12 | 0 | 0.0 | 0.0 | 0.00 | 0.91 | 0.86 | 93 | 1011.7 |
| 20260508005515 | 12 | 0 | 0.0 | 0.0 | 0.00 | 0.91 | 0.86 | 93 | 1011.8 |
| 20260508005017 | 12 | 0 | 0.0 | 0.0 | 0.00 | 0.91 | 0.86 | 93 | 1011.7 |
| 20260508004531 | 12 | 0 | 0.0 | 3.2 | 0.00 | 0.91 | 0.86 | 93 | 1011.8 |
| 20260508004013 | 12 | 0 | 0.0 | 3.2 | 0.00 | 0.91 | 0.86 | 92 | 1011.6 |
| 20260508003514 | 12 | 0 | 0.0 | 3.2 | 0.00 | 0.91 | 0.86 | 92 | 1011.7 |
| 20260508003051 | 12 | 273 | 0.0 | 3.2 | 0.00 | 0.91 | 0.86 | 92 | 1011.5 |
| 20260508002513 | 12 | 0 | 0.0 | 1.6 | 0.00 | 0.91 | 0.86 | 92 | 1011.6 |
| 20260508002017 | 12 | 0 | 0.0 | 0.0 | 0.03 | 0.91 | 0.86 | 92 | 1012.1 |
| 20260508001530 | 12 | 0 | 0.0 | 1.6 | 0.03 | 0.91 | 0.86 | 92 | 1011.8 |
| 20260508001010 | 12 | 0 | 0.0 | 1.6 | 0.03 | 0.91 | 0.86 | 92 | 1011.7 |
| 20260508000513 | 12 | 0 | 0.0 | 3.2 | 0.03 | 0.91 | 0.86 | 92 | 1011.5 |
| 20260508000029 | 12 | 0 | 0.0 | 3.2 | 0.03 | 0.91 | 0.86 | 92 | 1011.1 |
| 20260507235514 | 12 | 0 | 0.0 | 3.2 | 0.03 | 0.91 | 0.86 | 92 | 1010.8 |
| 20260507235010 | 12 | 0 | 0.0 | 3.2 | 0.03 | 0.91 | 0.86 | 92 | 1010.6 |
| 20260507234530 | 13 | 0 | 0.0 | 3.2 | 0.03 | 0.91 | 0.86 | 92 | 1010.4 |
| 20260507234009 | 12 | 0 | 0.0 | 3.2 | 0.03 | 0.91 | 0.86 | 92 | 1010.6 |
| 20260507233510 | 13 | 0 | 0.0 | 4.8 | 0.03 | 0.91 | 0.86 | 92 | 1010.7 |
| 20260507233033 | 12 | 0 | 0.0 | 4.8 | 0.03 | 0.91 | 0.86 | 92 | 1010.8 |
| 20260507232510 | 13 | 0 | 0.0 | 1.6 | 0.03 | 0.91 | 0.86 | 92 | 1010.9 |
| 20260507232015 | 12 | 0 | 0.0 | 6.4 | 0.00 | 0.89 | 0.84 | 92 | 1010.8 |
| 20260507231531 | 12 | 0 | 0.0 | 6.4 | 0.00 | 0.89 | 0.84 | 92 | 1010.9 |
| 20260507231014 | 12 | 0 | 0.0 | 4.8 | 0.00 | 0.89 | 0.84 | 92 | 1010.8 |
| 20260507230512 | 12 | 124 | 0.0 | 4.8 | 0.00 | 0.89 | 0.84 | 92 | 1010.8 |
| 20260507230030 | 13 | 0 | 0.0 | 3.2 | 0.00 | 0.89 | 0.84 | 92 | 1010.6 |
| 20260507225516 | 13 | 0 | 0.0 | 11.3 | 0.00 | 0.89 | 0.84 | 92 | 1010.6 |
| 20260507225009 | 13 | 0 | 0.0 | 14.5 | 0.03 | 0.89 | 0.84 | 92 | 1010.8 |
| 20260507224541 | 13 | 0 | 3.2 | 14.5 | 0.03 | 0.89 | 0.84 | 92 | 1010.6 |
| 20260507224008 | 13 | 0 | 0.0 | 3.2 | 0.03 | 0.89 | 0.84 | 92 | 1010.3 |
| 20260507223511 | 13 | 0 | 0.0 | 8.0 | 0.03 | 0.89 | 0.84 | 92 | 1010.2 |
| 20260507223029 | 13 | 0 | 0.0 | 8.0 | 0.03 | 0.89 | 0.84 | 92 | 1010.3 |
| 20260507222508 | 13 | 0 | 0.0 | 4.8 | 0.03 | 0.89 | 0.84 | 92 | 1010.1 |
| 20260507222010 | 13 | 0 | 0.0 | 8.0 | 0.03 | 0.89 | 0.84 | 93 | 1010.0 |
| 20260507221529 | 13 | 329 | 1.6 | 8.0 | 0.03 | 0.89 | 0.84 | 93 | 1010.1 |
| 20260507221012 | 13 | 141 | 0.0 | 6.4 | 0.03 | 0.89 | 0.84 | 93 | 1010.1 |
| 20260507220513 | 12 | 0 | 0.0 | 3.2 | 0.03 | 0.89 | 0.84 | 93 | 1010.1 |
| 20260507220032 | 12 | 0 | 0.0 | 11.3 | 0.03 | 0.89 | 0.84 | 93 | 1010.3 |
| 20260507215512 | 12 | 0 | 0.0 | 11.3 | 0.00 | 0.86 | 0.81 | 93 | 1010.3 |
| 20260507215013 | 12 | 0 | 1.6 | 12.9 | 0.00 | 0.86 | 0.81 | 93 | 1010.4 |
| 20260507214530 | 12 | 0 | 0.0 | 12.9 | 0.00 | 0.86 | 0.81 | 93 | 1010.4 |
| 20260507214008 | 12 | 72 | 0.0 | 12.9 | 0.03 | 0.86 | 0.81 | 93 | 1010.3 |
| 20260507213509 | 12 | 233 | 3.2 | 12.9 | 0.03 | 0.86 | 0.81 | 93 | 1010.2 |
| 20260507213032 | 12 | 71 | 3.2 | 12.9 | 0.03 | 0.86 | 0.81 | 93 | 1010.0 |
| 20260507212508 | 12 | 75 | 0.0 | 14.5 | 0.03 | 0.86 | 0.81 | 94 | 1010.2 |
| 20260507212012 | 12 | 0 | 0.0 | 14.5 | 0.03 | 0.86 | 0.81 | 94 | 1010.1 |
| 20260507211530 | 12 | 0 | 3.2 | 14.5 | 0.03 | 0.86 | 0.81 | 93 | 1010.1 |
| 20260507211010 | 13 | 37 | 0.0 | 9.7 | 0.03 | 0.86 | 0.81 | 94 | 1010.0 |
| 20260507210511 | 13 | 0 | 1.6 | 14.5 | 0.03 | 0.86 | 0.81 | 94 | 1009.9 |
| 20260507210035 | 13 | 314 | 0.0 | 14.5 | 0.03 | 0.86 | 0.81 | 94 | 1009.8 |
| 20260507205510 | 13 | 307 | 1.6 | 14.5 | 0.03 | 0.86 | 0.81 | 94 | 1009.7 |
| 20260507205011 | 13 | 0 | 1.6 | 12.9 | 0.03 | 0.86 | 0.81 | 94 | 1009.7 |
| 20260507204531 | 13 | 0 | 0.0 | 17.7 | 0.00 | 0.84 | 0.79 | 94 | 1009.4 |
| 20260507204012 | 13 | 0 | 1.6 | 17.7 | 0.00 | 0.84 | 0.79 | 94 | 1009.5 |
| 20260507203514 | 13 | 0 | 1.6 | 12.9 | 0.03 | 0.84 | 0.79 | 95 | 1009.5 |
| 20260507203028 | 14 | 47 | 3.2 | 16.1 | 0.03 | 0.84 | 0.79 | 94 | 1009.5 |
| 20260507202509 | 14 | 0 | 0.0 | 16.1 | 0.03 | 0.84 | 0.79 | 95 | 1009.4 |
| 20260507202012 | 14 | 0 | 0.0 | 19.3 | 0.03 | 0.84 | 0.79 | 95 | 1009.4 |
| 20260507201533 | 13 | 63 | 3.2 | 19.3 | 0.03 | 0.84 | 0.79 | 95 | 1009.4 |
| 20260507201014 | 13 | 0 | 0.0 | 8.0 | 0.03 | 0.84 | 0.79 | 95 | 1009.4 |
| 20260507200510 | 13 | 343 | 0.0 | 17.7 | 0.03 | 0.84 | 0.79 | 95 | 1009.5 |
| 20260507200031 | 13 | 351 | 3.2 | 17.7 | 0.03 | 0.84 | 0.79 | 95 | 1009.5 |
| 20260507195512 | 14 | 295 | 0.0 | 12.9 | 0.03 | 0.97 | 0.79 | 95 | 1009.4 |
| 20260507195010 | 14 | 32 | 0.0 | 12.9 | 0.03 | 0.97 | 0.79 | 95 | 1009.4 |
| 20260507194537 | 14 | 0 | 3.2 | 9.7 | 0.03 | 0.97 | 0.79 | 95 | 1009.4 |
| 20260507194010 | 14 | 0 | 0.0 | 11.3 | 0.03 | 0.97 | 0.79 | 95 | 1009.4 |
| 20260507193510 | 14 | 325 | 3.2 | 11.3 | 0.00 | 0.94 | 0.76 | 95 | 1009.3 |
| 20260507193035 | 14 | 5 | 3.2 | 9.7 | 0.00 | 0.94 | 0.76 | 95 | 1009.3 |
| 20260507192510 | 14 | 36 | 0.0 | 14.5 | 0.03 | 0.94 | 0.76 | 95 | 1009.1 |
| 20260507192014 | 14 | 341 | 1.6 | 14.5 | 0.03 | 0.94 | 0.76 | 95 | 1009.1 |
| 20260507191530 | 15 | 309 | 1.6 | 14.5 | 0.03 | 0.94 | 0.76 | 95 | 1009.4 |
| 20260507191011 | 15 | 26 | 3.2 | 14.5 | 0.03 | 0.94 | 0.76 | 95 | 1009.5 |
| 20260507190510 | 15 | 64 | 0.0 | 14.5 | 0.03 | 0.94 | 0.76 | 95 | 1009.6 |
| 20260507190035 | 15 | 0 | 1.6 | 14.5 | 0.03 | 0.94 | 0.76 | 95 | 1009.3 |
| 20260507185509 | 15 | 0 | 0.0 | 11.3 | 0.03 | 0.94 | 0.76 | 95 | 1009.1 |
| 20260507185011 | 15 | 326 | 0.0 | 11.3 | 0.03 | 0.94 | 0.76 | 95 | 1008.7 |
| 20260507184529 | 15 | 156 | 1.6 | 9.7 | 0.03 | 0.94 | 0.76 | 95 | 1008.3 |
| 20260507184012 | 16 | 342 | 1.6 | 12.9 | 0.03 | 0.94 | 0.76 | 95 | 1009.0 |
| 20260507183514 | 16 | 38 | 3.2 | 12.9 | 0.03 | 0.94 | 0.76 | 95 | 1009.1 |
| 20260507183032 | 16 | 0 | 0.0 | 8.0 | 0.05 | 0.94 | 0.76 | 95 | 1009.1 |
| 20260507182512 | 17 | 0 | 0.0 | 11.3 | 0.03 | 0.91 | 0.74 | 95 | 1009.2 |
| 20260507182014 | 17 | 0 | 3.2 | 11.3 | 0.03 | 0.91 | 0.74 | 95 | 1008.8 |
| 20260507181531 | 17 | 27 | 1.6 | 9.7 | 0.03 | 0.91 | 0.74 | 95 | 1008.3 |
| 20260507181016 | 18 | 18 | 0.0 | 12.9 | 0.03 | 0.91 | 0.74 | 94 | 1008.6 |
| 20260507180511 | 19 | 65 | 3.2 | 12.9 | 0.03 | 0.91 | 0.74 | 94 | 1008.6 |
| 20260507180040 | 20 | 40 | 1.6 | 11.3 | 0.03 | 0.91 | 0.74 | 96 | 1008.8 |
| 20260507175511 | 21 | 0 | 0.0 | 1.6 | 0.03 | 0.91 | 0.74 | 97 | 1008.4 |
| 20260507175012 | 21 | 0 | 0.0 | 3.2 | 0.03 | 0.91 | 0.74 | 97 | 1008.6 |
| 20260507174530 | 21 | 0 | 0.0 | 3.2 | 0.03 | 0.91 | 0.74 | 97 | 1008.8 |
| 20260507174009 | 21 | 0 | 0.0 | 3.2 | 0.03 | 0.91 | 0.74 | 97 | 1008.8 |
| 20260507173514 | 21 | 0 | 0.0 | 1.6 | 0.03 | 0.91 | 0.74 | 97 | 1008.7 |
| 20260507173034 | 21 | 0 | 0.0 | 4.8 | 0.03 | 0.89 | 0.71 | 97 | 1008.6 |
| 20260507172508 | 21 | 0 | 0.0 | 4.8 | 0.03 | 0.89 | 0.71 | 97 | 1008.4 |
| 20260507172013 | 21 | 0 | 0.0 | 1.6 | 0.03 | 0.89 | 0.71 | 97 | 1008.5 |
| 20260507171532 | 21 | 0 | 0.0 | 4.8 | 0.03 | 0.89 | 0.71 | 97 | 1008.2 |
| 20260507171011 | 21 | 0 | 0.0 | 8.0 | 0.03 | 0.89 | 0.71 | 97 | 1008.1 |
| 20260507170513 | 20 | 0 | 0.0 | 8.0 | 0.03 | 0.89 | 0.71 | 97 | 1008.1 |
| 20260507170030 | 20 | 207 | 3.2 | 8.0 | 0.03 | 0.89 | 0.71 | 97 | 1008.2 |
| 20260507165510 | 20 | 0 | 1.6 | 4.8 | 0.03 | 0.89 | 0.71 | 97 | 1008.3 |
| 20260507165016 | 20 | 0 | 0.0 | 3.2 | 0.05 | 0.89 | 0.71 | 97 | 1008.3 |
| 20260507164531 | 20 | 0 | 0.0 | 3.2 | 0.05 | 0.89 | 0.71 | 97 | 1008.6 |
| 20260507164010 | 20 | 124 | 0.0 | 1.6 | 0.05 | 0.89 | 0.71 | 97 | 1008.7 |
| 20260507163512 | 20 | 0 | 0.0 | 1.6 | 0.05 | 0.89 | 0.71 | 97 | 1008.9 |
| 20260507163032 | 20 | 0 | 0.0 | 4.8 | 0.03 | 0.86 | 0.69 | 97 | 1009.4 |
| 20260507162510 | 20 | 0 | 0.0 | 9.7 | 0.03 | 0.86 | 0.69 | 97 | 1009.4 |
| 20260507162018 | 20 | 0 | 0.0 | 9.7 | 0.03 | 0.86 | 0.69 | 97 | 1009.5 |
| 20260507161529 | 20 | 190 | 0.0 | 4.8 | 0.03 | 0.86 | 0.69 | 97 | 1009.6 |
| 20260507161009 | 20 | 0 | 0.0 | 4.8 | 0.03 | 0.86 | 0.69 | 97 | 1009.8 |
| 20260507160512 | 20 | 0 | 0.0 | 4.8 | 0.05 | 0.86 | 0.69 | 97 | 1009.8 |
| 20260507160034 | 20 | 0 | 0.0 | 1.6 | 0.05 | 0.86 | 0.69 | 97 | 1010.0 |
| 20260507155513 | 20 | 0 | 0.0 | 3.2 | 0.05 | 0.86 | 0.69 | 97 | 1010.0 |
| 20260507155016 | 20 | 0 | 0.0 | 3.2 | 0.03 | 0.84 | 0.66 | 97 | 1009.8 |
| 20260507154532 | 20 | 0 | 0.0 | 3.2 | 0.03 | 0.84 | 0.66 | 97 | 1009.7 |
| 20260507154010 | 20 | 0 | 0.0 | 3.2 | 0.03 | 0.84 | 0.66 | 97 | 1009.4 |
| 20260507153511 | 20 | 0 | 0.0 | 3.2 | 0.03 | 0.84 | 0.66 | 97 | 1009.2 |
| 20260507153033 | 20 | 115 | 0.0 | 6.4 | 0.05 | 0.84 | 0.66 | 97 | 1009.2 |
| 20260507152512 | 20 | 0 | 0.0 | 6.4 | 0.05 | 0.84 | 0.66 | 97 | 1009.4 |
| 20260507152011 | 20 | 182 | 0.0 | 1.6 | 0.05 | 0.84 | 0.66 | 97 | 1009.6 |
| 20260507151530 | 20 | 0 | 0.0 | 0.0 | 0.05 | 0.84 | 0.66 | 97 | 1009.4 |
| 20260507151010 | 19 | 0 | 0.0 | 3.2 | 0.03 | 0.81 | 0.64 | 97 | 1009.3 |
| 20260507150513 | 19 | 0 | 0.0 | 6.4 | 0.03 | 0.81 | 0.64 | 97 | 1009.6 |
| 20260507150030 | 19 | 0 | 0.0 | 6.4 | 0.03 | 0.81 | 0.64 | 97 | 1009.6 |
| 20260507145512 | 19 | 283 | 1.6 | 6.4 | 0.03 | 0.81 | 0.64 | 97 | 1009.7 |
| 20260507145012 | 19 | 0 | 0.0 | 6.4 | 0.05 | 0.81 | 0.64 | 97 | 1009.9 |
| 20260507144534 | 19 | 237 | 0.0 | 6.4 | 0.05 | 0.81 | 0.64 | 97 | 1009.9 |
| 20260507144010 | 19 | 257 | 0.0 | 6.4 | 0.05 | 0.81 | 0.64 | 97 | 1009.7 |
| 20260507143513 | 19 | 0 | 0.0 | 8.0 | 0.03 | 0.79 | 0.61 | 97 | 1009.8 |
| 20260507143033 | 19 | 0 | 0.0 | 8.0 | 0.03 | 0.79 | 0.61 | 97 | 1009.9 |
| 20260507142511 | 19 | 199 | 0.0 | 8.0 | 0.03 | 0.79 | 0.61 | 97 | 1009.7 |
| 20260507142010 | 19 | 210 | 1.6 | 4.8 | 0.03 | 0.79 | 0.61 | 97 | 1009.9 |
| 20260507141530 | 19 | 0 | 0.0 | 3.2 | 0.05 | 0.79 | 0.61 | 97 | 1010.0 |
| 20260507141012 | 19 | 0 | 0.0 | 0.0 | 0.05 | 0.79 | 0.61 | 97 | 1010.2 |
| 20260507140512 | 19 | 0 | 0.0 | 0.0 | 0.05 | 0.79 | 0.61 | 97 | 1010.3 |
| 20260507140033 | 19 | 0 | 0.0 | 3.2 | 0.05 | 0.79 | 0.61 | 97 | 1010.2 |
| 20260507135510 | 19 | 0 | 0.0 | 4.8 | 0.03 | 0.76 | 0.58 | 97 | 1010.1 |
| 20260507135015 | 19 | 0 | 0.0 | 4.8 | 0.03 | 0.76 | 0.58 | 97 | 1010.1 |
| 20260507134530 | 19 | 0 | 0.0 | 0.0 | 0.03 | 0.76 | 0.58 | 97 | 1010.2 |
| 20260507134012 | 19 | 0 | 0.0 | 6.4 | 0.03 | 0.76 | 0.58 | 97 | 1010.2 |
| 20260507133515 | 19 | 0 | 0.0 | 6.4 | 0.03 | 0.76 | 0.58 | 97 | 1010.3 |
| 20260507133033 | 19 | 0 | 0.0 | 6.4 | 0.03 | 0.76 | 0.58 | 97 | 1010.2 |
| 20260507132510 | 19 | 0 | 0.0 | 6.4 | 0.05 | 0.76 | 0.58 | 97 | 1010.2 |
| 20260507132009 | 19 | 0 | 0.0 | 6.4 | 0.05 | 0.76 | 0.58 | 97 | 1010.2 |
| 20260507131539 | 19 | 0 | 0.0 | 4.8 | 0.03 | 0.74 | 0.56 | 97 | 1010.3 |
| 20260507131011 | 19 | 0 | 0.0 | 4.8 | 0.03 | 0.74 | 0.56 | 97 | 1010.2 |
| 20260507130513 | 19 | 0 | 0.0 | 4.8 | 0.03 | 0.74 | 0.56 | 97 | 1010.1 |
| 20260507130030 | 19 | 0 | 0.0 | 4.8 | 0.03 | 0.74 | 0.56 | 96 | 1010.0 |
| 20260507125511 | 19 | 213 | 0.0 | 4.8 | 0.03 | 0.74 | 0.56 | 96 | 1010.1 |
| 20260507125011 | 18 | 0 | 0.0 | 6.4 | 0.03 | 0.74 | 0.56 | 96 | 1010.1 |
| 20260507124533 | 18 | 0 | 0.0 | 6.4 | 0.05 | 0.74 | 0.56 | 96 | 1010.2 |
| 20260507124014 | 18 | 0 | 0.0 | 6.4 | 0.05 | 0.74 | 0.56 | 96 | 1010.1 |
| 20260507123516 | 18 | 231 | 1.6 | 6.4 | 0.05 | 0.74 | 0.56 | 96 | 1010.1 |
| 20260507123030 | 18 | 0 | 1.6 | 6.4 | 0.05 | 0.74 | 0.56 | 96 | 1010.1 |
| 20260507122514 | 18 | 196 | 1.6 | 6.4 | 0.03 | 0.71 | 0.53 | 96 | 1010.2 |
| 20260507122015 | 18 | 0 | 0.0 | 6.4 | 0.03 | 0.71 | 0.53 | 96 | 1010.2 |
| 20260507121531 | 18 | 154 | 0.0 | 6.4 | 0.03 | 0.71 | 0.53 | 96 | 1010.2 |
| 20260507121012 | 18 | 0 | 0.0 | 6.4 | 0.03 | 0.71 | 0.53 | 96 | 1010.2 |
| 20260507120511 | 18 | 0 | 0.0 | 4.8 | 0.03 | 0.71 | 0.53 | 96 | 1010.4 |
| 20260507120032 | 18 | 0 | 0.0 | 9.7 | 0.05 | 0.71 | 0.53 | 96 | 1010.4 |
| 20260507115513 | 18 | 68 | 1.6 | 9.7 | 0.05 | 0.71 | 0.53 | 96 | 1010.4 |
| 20260507115016 | 18 | 0 | 0.0 | 4.8 | 0.05 | 0.71 | 0.53 | 96 | 1010.4 |
| 20260507114532 | 18 | 196 | 0.0 | 4.8 | 0.03 | 0.69 | 0.51 | 96 | 1010.6 |
| 20260507114010 | 18 | 0 | 0.0 | 0.0 | 0.03 | 0.69 | 0.51 | 96 | 1010.7 |
| 20260507113510 | 18 | 0 | 0.0 | 0.0 | 0.03 | 0.69 | 0.51 | 96 | 1010.7 |
| 20260507113036 | 18 | 0 | 0.0 | 4.8 | 0.05 | 0.69 | 0.51 | 96 | 1010.9 |
| 20260507112512 | 18 | 0 | 0.0 | 4.8 | 0.05 | 0.69 | 0.51 | 96 | 1010.7 |
| 20260507112014 | 18 | 0 | 0.0 | 1.6 | 0.05 | 0.69 | 0.51 | 96 | 1010.8 |
| 20260507111530 | 18 | 0 | 0.0 | 4.8 | 0.05 | 0.69 | 0.51 | 96 | 1010.7 |
| 20260507111008 | 18 | 0 | 0.0 | 4.8 | 0.05 | 0.69 | 0.51 | 96 | 1010.8 |
| 20260507110509 | 18 | 0 | 0.0 | 4.8 | 0.03 | 0.66 | 0.48 | 96 | 1010.8 |
| 20260507110029 | 18 | 0 | 0.0 | 4.8 | 0.03 | 0.66 | 0.48 | 96 | 1010.7 |
| 20260507105509 | 18 | 189 | 0.0 | 4.8 | 0.03 | 0.66 | 0.48 | 96 | 1010.7 |
| 20260507105016 | 18 | 244 | 0.0 | 3.2 | 0.05 | 0.66 | 0.48 | 96 | 1010.5 |
| 20260507104534 | 18 | 0 | 0.0 | 1.6 | 0.05 | 0.66 | 0.48 | 96 | 1010.5 |
| 20260507104010 | 18 | 0 | 0.0 | 1.6 | 0.05 | 0.66 | 0.48 | 96 | 1010.5 |
| 20260507103509 | 18 | 0 | 0.0 | 4.8 | 0.05 | 0.66 | 0.48 | 96 | 1010.5 |
| 20260507103030 | 18 | 0 | 0.0 | 4.8 | 0.03 | 0.64 | 0.46 | 96 | 1010.5 |
| 20260507102509 | 18 | 0 | 0.0 | 4.8 | 0.05 | 0.64 | 0.46 | 96 | 1010.6 |
| 20260507102015 | 18 | 0 | 0.0 | 8.0 | 0.05 | 0.64 | 0.46 | 96 | 1010.4 |
| 20260507101552 | 18 | 0 | 0.0 | 8.0 | 0.05 | 0.64 | 0.46 | 96 | 1010.3 |
| 20260507101011 | 18 | 0 | 0.0 | 8.0 | 0.05 | 0.64 | 0.46 | 96 | 1010.6 |
| 20260507100509 | 18 | 0 | 0.0 | 4.8 | 0.05 | 0.64 | 0.46 | 96 | 1010.6 |
| 20260507100034 | 18 | 0 | 0.0 | 4.8 | 0.05 | 0.64 | 0.46 | 96 | 1010.4 |
| 20260507095510 | 18 | 0 | 0.0 | 4.8 | 0.05 | 0.64 | 0.46 | 96 | 1010.4 |
| 20260507095014 | 18 | 0 | 0.0 | 3.2 | 0.05 | 0.61 | 0.43 | 95 | 1010.3 |
| 20260507094531 | 18 | 0 | 0.0 | 4.8 | 0.05 | 0.61 | 0.43 | 95 | 1010.2 |
| 20260507094009 | 18 | 0 | 0.0 | 9.7 | 0.05 | 0.61 | 0.43 | 95 | 1010.5 |
| 20260507093516 | 18 | 173 | 1.6 | 9.7 | 0.05 | 0.61 | 0.43 | 95 | 1010.4 |
| 20260507093032 | 18 | 0 | 0.0 | 4.8 | 0.05 | 0.61 | 0.43 | 95 | 1010.4 |
| 20260507092514 | 18 | 0 | 0.0 | 9.7 | 0.05 | 0.58 | 0.41 | 95 | 1010.2 |
| 20260507092014 | 18 | 0 | 1.6 | 9.7 | 0.05 | 0.58 | 0.41 | 95 | 1010.3 |
| 20260507091550 | 18 | 210 | 0.0 | 9.7 | 0.05 | 0.58 | 0.41 | 95 | 1010.1 |
| 20260507091011 | 18 | 0 | 1.6 | 14.5 | 0.05 | 0.58 | 0.41 | 95 | 1010.4 |
| 20260507090511 | 18 | 180 | 3.2 | 14.5 | 0.05 | 0.58 | 0.41 | 95 | 1010.4 |
| 20260507090033 | 18 | 0 | 0.0 | 3.2 | 0.08 | 0.58 | 0.41 | 95 | 1010.4 |
| 20260507085509 | 18 | 135 | 0.0 | 3.2 | 0.08 | 0.58 | 0.41 | 95 | 1010.3 |
| 20260507085012 | 18 | 0 | 0.0 | 3.2 | 0.05 | 0.56 | 0.38 | 95 | 1010.5 |
| 20260507084530 | 18 | 0 | 0.0 | 3.2 | 0.05 | 0.56 | 0.38 | 95 | 1010.8 |
| 20260507084012 | 18 | 0 | 0.0 | 1.6 | 0.05 | 0.56 | 0.38 | 95 | 1010.7 |
| 20260507083513 | 18 | 0 | 0.0 | 1.6 | 0.08 | 0.56 | 0.38 | 95 | 1010.9 |
| 20260507083032 | 18 | 0 | 0.0 | 0.0 | 0.05 | 0.53 | 0.36 | 95 | 1011.2 |
| 20260507082508 | 18 | 0 | 0.0 | 0.0 | 0.05 | 0.53 | 0.36 | 94 | 1011.1 |
| 20260507082013 | 18 | 0 | 0.0 | 0.0 | 0.05 | 0.53 | 0.36 | 94 | 1011.3 |
| 20260507081542 | 18 | 0 | 0.0 | 1.6 | 0.05 | 0.53 | 0.36 | 94 | 1011.2 |
| 20260507081011 | 18 | 0 | 0.0 | 1.6 | 0.08 | 0.53 | 0.36 | 94 | 1011.4 |
| 20260507080515 | 18 | 254 | 0.0 | 1.6 | 0.08 | 0.53 | 0.36 | 94 | 1011.0 |
| 20260507080030 | 18 | 0 | 0.0 | 8.0 | 0.05 | 0.51 | 0.33 | 94 | 1011.0 |
| 20260507075510 | 18 | 0 | 0.0 | 8.0 | 0.05 | 0.51 | 0.33 | 94 | 1011.2 |
| 20260507075017 | 18 | 259 | 3.2 | 8.0 | 0.08 | 0.51 | 0.33 | 94 | 1010.2 |
| 20260507074537 | 18 | 171 | 0.0 | 4.8 | 0.08 | 0.51 | 0.33 | 94 | 1010.8 |
| 20260507074009 | 18 | 0 | 0.0 | 0.0 | 0.08 | 0.51 | 0.33 | 94 | 1011.3 |
| 20260507073509 | 18 | 0 | 0.0 | 0.0 | 0.05 | 0.48 | 0.30 | 94 | 1011.6 |
| 20260507073035 | 18 | 0 | 0.0 | 0.0 | 0.05 | 0.48 | 0.30 | 94 | 1011.5 |
| 20260507072514 | 18 | 0 | 0.0 | 8.0 | 0.08 | 0.48 | 0.30 | 94 | 1011.6 |
| 20260507072009 | 18 | 0 | 0.0 | 8.0 | 0.08 | 0.48 | 0.30 | 94 | 1011.6 |
| 20260507071530 | 18 | 173 | 1.6 | 8.0 | 0.08 | 0.48 | 0.30 | 94 | 1011.3 |
| 20260507071009 | 18 | 178 | 1.6 | 6.4 | 0.08 | 0.46 | 0.28 | 94 | 1011.3 |
| 20260507070512 | 18 | 180 | 1.6 | 6.4 | 0.08 | 0.46 | 0.28 | 93 | 1011.4 |
| 20260507070036 | 18 | 0 | 0.0 | 4.8 | 0.08 | 0.46 | 0.28 | 93 | 1011.6 |
| 20260507065513 | 18 | 0 | 1.6 | 3.2 | 0.08 | 0.46 | 0.28 | 93 | 1011.9 |
| 20260507065015 | 18 | 178 | 0.0 | 3.2 | 0.08 | 0.43 | 0.25 | 93 | 1011.8 |
| 20260507064533 | 18 | 0 | 0.0 | 0.0 | 0.08 | 0.43 | 0.25 | 93 | 1011.8 |
| 20260507064011 | 18 | 0 | 0.0 | 0.0 | 0.10 | 0.43 | 0.25 | 93 | 1011.7 |
| 20260507063514 | 18 | 0 | 0.0 | 0.0 | 0.10 | 0.43 | 0.25 | 93 | 1011.8 |
| 20260507063032 | 18 | 0 | 0.0 | 1.6 | 0.10 | 0.43 | 0.25 | 93 | 1011.8 |
| 20260507062515 | 18 | 0 | 0.0 | 1.6 | 0.10 | 0.41 | 0.23 | 93 | 1012.2 |
| 20260507062014 | 18 | 0 | 0.0 | 1.6 | 0.10 | 0.41 | 0.23 | 93 | 1012.4 |
| 20260507061534 | 18 | 0 | 0.0 | 1.6 | 0.13 | 0.41 | 0.23 | 92 | 1012.2 |
| 20260507061012 | 18 | 0 | 0.0 | 0.0 | 0.10 | 0.38 | 0.20 | 92 | 1012.5 |
| 20260507060510 | 18 | 0 | 0.0 | 0.0 | 0.10 | 0.38 | 0.20 | 92 | 1012.5 |
| 20260507060032 | 18 | 0 | 0.0 | 0.0 | 0.13 | 0.38 | 0.20 | 92 | 1012.6 |
| 20260507055510 | 18 | 0 | 0.0 | 1.6 | 0.15 | 0.38 | 0.20 | 92 | 1012.4 |
| 20260507055014 | 18 | 0 | 0.0 | 1.6 | 0.13 | 0.36 | 0.18 | 92 | 1012.3 |
| 20260507054529 | 18 | 0 | 0.0 | 1.6 | 0.13 | 0.36 | 0.18 | 92 | 1012.2 |
| 20260507054010 | 18 | 0 | 0.0 | 1.6 | 0.13 | 0.33 | 0.15 | 92 | 1012.3 |
| 20260507053512 | 18 | 0 | 0.0 | 6.4 | 0.13 | 0.33 | 0.15 | 92 | 1012.1 |
| 20260507053029 | 18 | 0 | 0.0 | 6.4 | 0.15 | 0.33 | 0.15 | 92 | 1011.6 |
| 20260507052509 | 18 | 0 | 0.0 | 4.8 | 0.13 | 0.30 | 0.13 | 92 | 1011.3 |
| 20260507052009 | 19 | 0 | 0.0 | 4.8 | 0.13 | 0.30 | 0.13 | 91 | 1011.6 |
| 20260507051532 | 19 | 0 | 0.0 | 4.8 | 0.10 | 0.28 | 0.10 | 91 | 1011.9 |
| 20260507051011 | 19 | 184 | 0.0 | 9.7 | 0.10 | 0.28 | 0.10 | 91 | 1011.9 |
| 20260507050511 | 19 | 0 | 0.0 | 9.7 | 0.08 | 0.25 | 0.08 | 91 | 1012.1 |
| 20260507050033 | 19 | 155 | 1.6 | 6.4 | 0.08 | 0.25 | 0.08 | 91 | 1012.3 |
| 20260507045510 | 20 | 0 | 0.0 | 1.6 | 0.05 | 0.23 | 0.05 | 90 | 1014.2 |
| 20260507045013 | 20 | 0 | 0.0 | 1.6 | 0.08 | 0.23 | 0.05 | 90 | 1013.9 |